FW9274 Weather Reports


time (UTC)temp
C
wind
direction
speed
KPH
gust
KPH
rain 1hr
cm
rain 24hr
cm
rain mn
cm
humidity
%
barometer
mb
20260906174020 23 195 4.8 8.0 0.00 0.00 0.00 86 1018.4
20260906173514 23 200 6.4 9.7 0.00 0.00 0.00 86 1018.9
20260906173011 23 251 4.8 4.8 0.00 0.00 0.00 86 1018.4
20260906172505 23 195 4.8 4.8 0.00 0.00 0.00 85 1018.9
20260906172000 23 201 1.6 1.6 0.00 0.00 0.00 87 1018.9
20260906171455 22 214 3.2 3.2 0.00 0.00 0.00 88 1019.2
20260906170950 22 27 1.6 1.6 0.00 0.00 0.00 87 1018.9
20260906170446 22 60 3.2 4.8 0.00 0.00 0.00 88 1019.2
20260906165943 22 220 6.4 8.0 0.00 0.00 0.00 88 1019.2
20260906165442 22 195 4.8 8.0 0.00 0.00 0.00 89 1019.2
20260906164938 22 45 3.2 3.2 0.00 0.00 0.00 90 1019.2
20260906164436 22 199 9.7 11.3 0.00 0.00 0.00 88 1019.2
20260906163933 22 182 3.2 3.2 0.00 0.00 0.00 89 1019.2
20260906163428 22 169 3.2 3.2 0.00 0.00 0.00 90 1019.2
20260906162927 22 132 4.8 4.8 0.00 0.00 0.00 90 1019.5
20260906162425 22 206 3.2 3.2 0.00 0.00 0.00 89 1019.5
20260906161921 22 186 1.6 1.6 0.00 0.00 0.00 90 1019.5
20260906161420 22 184 6.4 12.9 0.00 0.00 0.00 90 1019.5
20260906160919 22 115 6.4 8.0 0.00 0.00 0.00 90 1019.5
20260906160413 22 194 3.2 3.2 0.00 0.00 0.00 91 1019.2
20260906155911 22 159 3.2 3.2 0.00 0.00 0.00 91 1019.5
20260906155405 22 251 1.6 1.6 0.00 0.00 0.00 90 1019.5
20260906154901 22 160 1.6 1.6 0.00 0.00 0.00 91 1019.5
20260906154355 21 163 4.8 4.8 0.00 0.00 0.00 92 1019.2
20260906153854 21 158 6.4 9.7 0.00 0.00 0.00 92 1019.5
20260906153353 21 100 3.2 4.8 0.00 0.00 0.00 93 1019.5
20260906152848 21 153 3.2 3.2 0.00 0.00 0.00 93 1019.2
20260906152343 21 148 8.0 11.3 0.00 0.00 0.00 92 1019.5
20260906151842 21 83 6.4 8.0 0.00 0.00 0.00 92 1019.5
20260906151338 21 109 3.2 3.2 0.00 0.00 0.00 92 1019.5
20260906150834 21 210 3.2 3.2 0.00 0.00 0.00 92 1019.5
20260906150329 21 160 3.2 3.2 0.00 0.00 0.00 92 1019.5
20260906145828 21 179 4.8 4.8 0.00 0.00 0.00 92 1019.2
20260906145327 22 197 4.8 4.8 0.00 0.00 0.00 91 1019.5
20260906144822 22 102 1.6 3.2 0.00 0.00 0.00 91 1019.2
20260906144317 22 98 4.8 4.8 0.00 0.00 0.00 91 1019.5
20260906143816 22 169 4.8 8.0 0.00 0.00 0.00 90 1019.5
20260906143313 22 105 1.6 3.2 0.00 0.00 0.00 91 1019.2
20260906142809 22 182 3.2 3.2 0.00 0.00 0.00 92 1019.2
20260906142306 22 194 4.8 3.2 0.00 0.00 0.00 90 1019.2
20260906141803 22 198 3.2 3.2 0.00 0.00 0.00 91 1018.9
20260906141257 22 75 3.2 4.8 0.00 0.00 0.00 91 1019.2
20260906140756 22 119 3.2 3.2 0.00 0.00 0.00 91 1019.2
20260906140251 22 139 1.6 1.6 0.00 0.00 0.00 92 1019.2
20260906135749 22 186 1.6 1.6 0.00 0.00 0.00 93 1019.2
20260906135244 21 82 1.6 0.0 0.00 0.00 0.00 94 1019.2
20260906134740 21 73 3.2 3.2 0.00 0.00 0.00 94 1019.2
20260906134235 21 106 4.8 8.0 0.00 0.00 0.00 94 1019.2
20260906133730 21 188 1.6 1.6 0.00 0.00 0.00 95 1018.9
20260906133226 21 147 3.2 3.2 0.00 0.00 0.00 96 1019.2
20260906132721 21 140 4.8 4.8 0.00 0.00 0.00 96 1019.2
20260906132216 21 172 3.2 3.2 0.00 0.00 0.00 96 1018.9
20260906131712 20 60 1.6 1.6 0.00 0.00 0.00 97 1019.2
20260906131207 20 123 3.2 4.8 0.00 0.00 0.00 97 1018.9
20260906130702 20 105 3.2 4.8 0.00 0.00 0.00 99 1018.9
20260906130157 20 183 0.0 0.0 0.00 0.00 0.00 99 1018.9
20260906125655 20 73 3.2 3.2 0.00 0.00 0.00 99 1018.9
20260906125154 19 72 1.6 1.6 0.00 0.00 0.00 99 1018.4
20260906124649 19 148 0.0 0.0 0.00 0.00 0.00 99 1018.4
20260906124144 19 170 0.0 0.0 0.00 0.00 0.00 99 1018.4
20260906123643 19 169 1.6 0.0 0.00 0.00 0.00 99 1018.9
20260906123139 19 137 0.0 0.0 0.00 0.00 0.00 99 1019.2
20260906122638 18 135 1.6 1.6 0.00 0.00 0.00 99 1018.9
20260906122134 18 81 1.6 1.6 0.00 0.00 0.00 99 1018.4
20260906121630 18 122 1.6 1.6 0.00 0.00 0.00 99 1018.4
20260906121126 18 155 0.0 0.0 0.00 0.00 0.00 99 1018.4
20260906120622 18 155 0.0 1.6 0.00 0.00 0.00 99 1018.9
20260906120119 18 155 1.6 1.6 0.00 0.00 0.00 99 1018.4
20260906115618 18 157 1.6 1.6 0.00 0.00 0.00 99 1018.4
20260906115115 18 192 0.0 0.0 0.00 0.00 0.00 99 1018.4
20260906114613 18 135 3.2 4.8 0.00 0.00 0.00 99 1018.4
20260906114109 18 206 0.0 1.6 0.00 0.00 0.00 99 1018.4
20260906113608 18 209 1.6 1.6 0.00 0.00 0.00 99 1018.1
20260906113104 18 186 1.6 1.6 0.00 0.00 0.00 99 1018.4
20260906112603 18 186 1.6 1.6 0.00 0.00 0.00 99 1018.4
20260906112100 18 186 1.6 1.6 0.00 0.00 0.00 99 1018.4
20260906111559 18 186 1.6 1.6 0.00 0.00 0.00 99 1018.4
20260906111055 18 170 3.2 3.2 0.00 0.00 0.00 99 1018.4
20260906110554 18 84 0.0 0.0 0.00 0.00 0.00 99 1018.4
20260906110054 18 83 1.6 1.6 0.00 0.00 0.00 99 1018.4
20260906105549 19 83 1.6 0.0 0.00 0.00 0.00 99 1018.4
20260906105045 19 85 0.0 0.0 0.00 0.00 0.00 99 1018.1
20260906104543 19 96 1.6 1.6 0.00 0.00 0.00 99 1018.4
20260906104038 19 95 0.0 0.0 0.00 0.00 0.00 99 1018.1
20260906103536 19 164 1.6 1.6 0.00 0.00 0.00 99 1018.1
20260906103032 18 164 0.0 0.0 0.00 0.00 0.00 99 1018.1
20260906102531 18 166 1.6 1.6 0.00 0.00 0.00 99 1018.1
20260906102026 18 166 1.6 1.6 0.00 0.00 0.00 99 1018.1
20260906101521 19 167 0.0 0.0 0.00 0.00 0.00 99 1018.1
20260906101016 19 167 1.6 1.6 0.00 0.00 0.00 99 1018.1
20260906100512 19 167 0.0 0.0 0.00 0.00 0.00 99 1018.1
20260906100006 19 167 1.6 1.6 0.00 0.00 0.00 99 1018.1
20260906095501 19 167 0.0 0.0 0.00 0.00 0.00 99 1018.1
20260906094956 19 167 0.0 0.0 0.00 0.00 0.00 99 1018.1
20260906094455 19 168 1.6 1.6 0.00 0.00 0.00 99 1017.7
20260906093951 19 172 0.0 0.0 0.00 0.00 0.00 99 1018.1
20260906093447 20 172 1.6 0.0 0.00 0.00 0.00 99 1017.7
20260906092942 20 170 1.6 1.6 0.00 0.00 0.00 99 1017.4
20260906092442 20 170 1.6 1.6 0.00 0.00 0.00 99 1017.7
20260906091937 20 171 1.6 1.6 0.00 0.00 0.00 99 1017.7
20260906091432 20 181 0.0 0.0 0.00 0.00 0.00 99 1017.4
20260906090929 20 161 0.0 0.0 0.00 0.00 0.00 99 1017.4
20260906090424 20 167 1.6 1.6 0.00 0.00 0.00 99 1017.7
20260906085918 20 177 1.6 1.6 0.00 0.00 0.00 98 1017.7
20260906085412 20 180 1.6 1.6 0.00 0.00 0.00 98 1017.4
20260906084911 20 163 1.6 1.6 0.00 0.00 0.00 98 1017.4
20260906084406 20 89 1.6 1.6 0.00 0.00 0.00 98 1017.4
20260906083905 20 82 0.0 1.6 0.00 0.00 0.00 98 1017.1
20260906083401 20 52 1.6 1.6 0.00 0.00 0.00 98 1017.4
20260906082900 20 63 4.8 4.8 0.00 0.00 0.00 98 1017.1
20260906082355 20 61 1.6 1.6 0.00 0.00 0.00 97 1017.1
20260906081852 20 52 1.6 1.6 0.00 0.00 0.00 97 1017.1
20260906081347 20 98 1.6 1.6 0.00 0.00 0.00 97 1017.1
20260906080843 20 86 1.6 1.6 0.00 0.00 0.00 96 1017.4
20260906080339 20 119 1.6 1.6 0.00 0.00 0.00 96 1017.1
20260906075838 20 136 3.2 4.8 0.00 0.00 0.00 96 1017.1
20260906075333 21 163 0.0 0.0 0.00 0.00 0.00 96 1017.4
20260906074828 21 102 1.6 1.6 0.00 0.00 0.00 95 1017.1
20260906074328 21 76 1.6 1.6 0.00 0.00 0.00 95 1017.4
20260906073827 21 92 1.6 1.6 0.00 0.00 0.00 95 1017.1
20260906073322 21 62 1.6 3.2 0.00 0.00 0.00 95 1017.4
20260906072818 21 72 1.6 1.6 0.00 0.00 0.00 95 1017.4
20260906072314 21 14 1.6 1.6 0.00 0.00 0.00 95 1017.4
20260906071810 21 3 0.0 0.0 0.00 0.00 0.00 95 1017.4
20260906071304 21 46 3.2 3.2 0.00 0.00 0.00 95 1017.4
20260906070801 21 123 0.0 0.0 0.00 0.00 0.00 94 1017.1
20260906070256 21 145 1.6 1.6 0.00 0.00 0.00 95 1017.7
20260906065756 21 165 1.6 3.2 0.00 0.00 0.00 95 1017.7
20260906065251 21 163 1.6 1.6 0.00 0.00 0.00 95 1017.7
20260906064747 21 171 1.6 1.6 0.00 0.00 0.00 95 1017.7
20260906064243 21 84 1.6 3.2 0.00 0.00 0.00 95 1018.1
20260906063737 21 169 0.0 1.6 0.00 0.00 0.00 95 1017.7
20260906063233 21 119 0.0 0.0 0.00 0.00 0.00 95 1017.7
20260906062728 21 75 1.6 1.6 0.00 0.00 0.00 96 1017.7
20260906062227 21 168 1.6 1.6 0.00 0.00 0.00 96 1017.7
20260906061723 21 101 1.6 0.0 0.00 0.00 0.00 96 1017.7
20260906061219 21 145 1.6 1.6 0.00 0.00 0.00 95 1017.7
20260906060714 21 175 3.2 3.2 0.00 0.00 0.00 95 1017.7
20260906060212 21 140 1.6 3.2 0.00 0.00 0.00 96 1017.4
20260906055707 21 92 1.6 1.6 0.00 0.00 0.00 95 1017.7
20260906055202 21 118 0.0 0.0 0.00 0.00 0.00 95 1017.7
20260906054657 21 161 0.0 0.0 0.00 0.00 0.00 95 1017.7
20260906054152 21 161 1.6 1.6 0.00 0.00 0.00 95 1017.7
20260906053649 21 172 1.6 0.0 0.00 0.00 0.00 95 1017.4
20260906053144 21 166 1.6 1.6 0.00 0.00 0.00 95 1017.7
20260906052639 21 147 1.6 1.6 0.00 0.00 0.00 95 1018.1
20260906052136 21 169 0.0 0.0 0.00 0.00 0.00 94 1018.1
20260906051632 21 168 0.0 0.0 0.00 0.00 0.00 94 1017.7
20260906051131 21 175 1.6 1.6 0.00 0.00 0.00 94 1018.1
20260906050627 21 138 3.2 3.2 0.00 0.00 0.00 94 1017.7
20260906050122 21 153 0.0 0.0 0.00 0.00 0.00 94 1017.7
20260906045620 21 178 1.6 1.6 0.00 0.00 0.00 94 1018.1
20260906045116 21 162 0.0 0.0 0.00 0.00 0.00 94 1018.1
20260906044612 21 147 0.0 1.6 0.00 0.00 0.00 93 1018.1
20260906044107 21 163 1.6 1.6 0.00 0.00 0.00 93 1018.1
20260906043603 22 148 1.6 1.6 0.00 0.00 0.00 93 1018.1
20260906043058 22 179 0.0 0.0 0.00 0.00 0.00 93 1018.1
20260906042557 22 72 1.6 1.6 0.00 0.00 0.00 93 1018.1
20260906042052 22 90 1.6 1.6 0.00 0.00 0.00 93 1018.1
20260906041549 22 87 1.6 1.6 0.00 0.00 0.00 92 1018.1
20260906041043 22 111 1.6 1.6 0.00 0.00 0.00 92 1018.1
20260906040538 22 77 0.0 1.6 0.00 0.00 0.00 92 1018.1
20260906040034 22 74 0.0 0.0 0.00 0.00 0.00 92 1018.1
20260906035529 22 77 1.6 1.6 0.00 0.00 0.00 92 1018.1
20260906035025 22 77 0.0 0.0 0.00 0.00 0.00 92 1018.1
20260906034524 22 96 0.0 0.0 0.00 0.00 0.00 92 1018.1
20260906034019 22 99 1.6 1.6 0.00 0.00 0.00 91 1018.4
20260906033514 22 97 1.6 1.6 0.00 0.00 0.00 91 1018.1
20260906033010 22 176 1.6 1.6 0.00 0.00 0.00 91 1018.1
20260906032507 22 192 0.0 0.0 0.00 0.00 0.00 91 1018.1
20260906032006 22 192 0.0 0.0 0.00 0.00 0.00 90 1018.1
20260906031502 22 206 0.0 0.0 0.00 0.00 0.00 90 1018.1
20260906030957 22 163 3.2 4.8 0.00 0.00 0.00 90 1018.1
20260906030452 22 160 1.6 1.6 0.00 0.00 0.00 90 1018.1
20260906025952 22 157 0.0 0.0 0.00 0.00 0.00 90 1018.1
20260906025446 22 157 1.6 3.2 0.00 0.00 0.00 90 1018.1
20260906024944 22 162 1.6 1.6 0.00 0.00 0.00 90 1018.1
20260906024444 22 188 1.6 1.6 0.00 0.00 0.00 89 1018.1
20260906023939 23 189 1.6 1.6 0.00 0.00 0.00 88 1018.4
20260906023435 23 209 0.0 0.0 0.00 0.00 0.00 88 1018.1
20260906022930 23 203 1.6 1.6 0.00 0.00 0.00 88 1018.1
20260906022425 23 187 1.6 1.6 0.00 0.00 0.00 88 1018.1
20260906021920 23 197 0.0 1.6 0.00 0.00 0.00 88 1018.1
20260906021420 23 132 0.0 0.0 0.00 0.00 0.00 88 1018.1
20260906020914 23 108 0.0 0.0 0.00 0.00 0.00 88 1017.7
20260906020409 23 191 1.6 1.6 0.00 0.00 0.00 88 1017.4
20260906015903 23 230 4.8 4.8 0.00 0.00 0.00 88 1017.4
20260906015357 23 171 1.6 1.6 0.00 0.00 0.00 88 1017.1
20260906014857 23 115 3.2 3.2 0.00 0.00 0.00 87 1017.1
20260906014356 23 191 3.2 3.2 0.00 0.00 0.00 87 1016.7
20260906013853 23 223 3.2 3.2 0.00 0.00 0.00 86 1017.1
20260906013348 23 228 1.6 1.6 0.00 0.00 0.00 86 1016.7
20260906012844 23 222 4.8 8.0 0.00 0.00 0.00 85 1016.4
20260906012339 23 189 1.6 1.6 0.00 0.00 0.00 85 1016.4
20260906011838 23 159 4.8 4.8 0.00 0.00 0.00 84 1016.4
20260906011333 24 174 3.2 3.2 0.00 0.00 0.00 84 1016.4
20260906010829 24 179 6.4 8.0 0.00 0.00 0.00 83 1016.0
20260906010325 24 130 1.6 3.2 0.00 0.00 0.00 83 1016.0
20260906005821 24 207 1.6 1.6 0.00 0.00 0.00 82 1016.0
20260906005319 25 188 1.6 1.6 0.00 0.00 0.00 81 1016.0
20260906004819 25 220 3.2 4.8 0.00 0.00 0.00 81 1015.7
20260906004318 25 153 1.6 1.6 0.00 0.00 0.00 80 1015.7
20260906003813 25 174 4.8 4.8 0.00 0.00 0.00 79 1015.7
20260906003309 25 178 6.4 8.0 0.00 0.00 0.00 78 1016.0
20260906002804 25 160 4.8 4.8 0.00 0.00 0.00 78 1015.4
20260906002306 25 157 4.8 8.0 0.00 0.00 0.00 77 1015.7
20260906001800 25 186 4.8 4.8 0.00 0.00 0.00 77 1015.7
20260906001254 26 164 9.7 11.3 0.00 0.00 0.00 76 1016.0
20260906000749 26 187 3.2 4.8 0.00 0.00 0.00 74 1015.7
20260906000244 26 173 9.7 9.7 0.00 0.00 0.00 73 1015.4
20260905235739 26 224 3.2 3.2 0.00 0.00 0.00 72 1015.4
20260905235238 26 194 0.0 0.0 0.00 0.00 0.00 71 1015.7
20260905234734 26 193 1.6 1.6 0.00 0.00 0.00 71 1015.4
20260905234229 26 90 1.6 1.6 0.00 0.00 0.00 70 1015.4
20260905233725 27 168 1.6 1.6 0.00 0.00 0.00 70 1015.4
20260905233224 27 318 1.6 3.2 0.00 0.00 0.00 69 1015.7
20260905232719 28 183 3.2 3.2 0.00 0.00 0.00 68 1015.4
20260905232215 28 120 1.6 1.6 0.00 0.00 0.00 68 1015.4
20260905231710 28 172 3.2 4.8 0.00 0.00 0.00 67 1015.4
20260905231206 28 153 4.8 4.8 0.00 0.00 0.00 67 1015.4
20260905230702 28 157 3.2 4.8 0.00 0.00 0.00 68 1015.4
20260905230159 28 136 1.6 1.6 0.00 0.00 0.00 68 1015.4
20260905225659 28 163 1.6 1.6 0.00 0.00 0.00 69 1015.4
20260905225154 28 184 1.6 1.6 0.00 0.00 0.00 68 1014.9
20260905224653 28 125 3.2 3.2 0.00 0.00 0.00 66 1014.9
20260905224148 28 89 1.6 1.6 0.00 0.00 0.00 65 1014.9
20260905223645 28 81 6.4 9.7 0.00 0.00 0.00 64 1014.9
20260905223141 28 48 1.6 1.6 0.00 0.00 0.00 65 1014.9
20260905222637 28 79 3.2 3.2 0.00 0.00 0.00 65 1014.9
20260905222131 28 68 4.8 8.0 0.00 0.00 0.00 64 1014.9
20260905221627 28 30 6.4 11.3 0.00 0.00 0.00 64 1014.6
20260905221124 28 356 4.8 8.0 0.00 0.00 0.00 65 1014.6
20260905220619 28 144 3.2 4.8 0.00 0.00 0.00 65 1014.6
20260905220115 28 76 4.8 4.8 0.00 0.00 0.00 68 1014.6
20260905215614 28 134 3.2 3.2 0.00 0.00 0.00 67 1014.9
20260905215110 28 109 6.4 11.3 0.00 0.00 0.00 66 1014.9
20260905214606 28 59 4.8 4.8 0.00 0.00 0.00 65 1014.9
20260905214106 28 40 1.6 3.2 0.00 0.00 0.00 66 1014.9
20260905213601 28 189 1.6 4.8 0.00 0.00 0.00 65 1015.4
20260905213056 28 61 3.2 3.2 0.00 0.00 0.00 67 1015.4
20260905212551 28 160 1.6 4.8 0.00 0.00 0.00 67 1015.4
20260905212051 28 55 1.6 1.6 0.00 0.00 0.00 67 1015.4
20260905211546 28 121 3.2 3.2 0.00 0.00 0.00 68 1015.4
20260905211042 27 351 1.6 1.6 0.00 0.00 0.00 70 1015.4
20260905210537 27 95 4.8 8.0 0.00 0.00 0.00 68 1015.7
20260905210032 27 42 4.8 3.2 0.00 0.00 0.00 69 1015.7
20260905205531 27 31 4.8 4.8 0.00 0.00 0.00 70 1015.7
20260905205030 28 315 3.2 3.2 0.00 0.00 0.00 70 1015.7
20260905204526 27 243 4.8 9.7 0.00 0.00 0.00 71 1015.7
20260905204021 27 351 4.8 4.8 0.00 0.00 0.00 72 1015.7
20260905203521 27 329 9.7 14.5 0.00 0.00 0.00 72 1015.7
20260905203016 27 215 3.2 3.2 0.00 0.00 0.00 74 1016.0
20260905202511 26 27 3.2 3.2 0.00 0.00 0.00 74 1015.7
20260905202006 26 359 4.8 8.0 0.00 0.00 0.00 75 1015.7
20260905201502 26 308 1.6 1.6 0.00 0.00 0.00 76 1016.0
20260905201001 26 64 8.0 11.3 0.00 0.00 0.00 76 1016.4
20260905200457 26 13 6.4 9.7 0.00 0.00 0.00 78 1016.0
20260905195955 26 356 4.8 4.8 0.00 0.00 0.00 78 1016.4
20260905195451 26 111 4.8 4.8 0.00 0.00 0.00 80 1016.4
20260905194946 26 302 1.6 1.6 0.00 0.00 0.00 81 1016.7
20260905194446 25 12 3.2 3.2 0.00 0.00 0.00 82 1016.4
20260905193940 25 321 1.6 3.2 0.00 0.00 0.00 82 1016.4
20260905193435 26 65 9.7 11.3 0.00 0.00 0.00 82 1016.7
20260905192930 26 90 1.6 1.6 0.00 0.00 0.00 82 1016.4
20260905192425 25 331 6.4 8.0 0.00 0.00 0.00 84 1016.7
20260905191920 25 60 1.6 3.2 0.00 0.00 0.00 84 1016.7
20260905191419 25 54 9.7 11.3 0.00 0.00 0.00 84 1016.7
20260905190914 25 12 1.6 3.2 0.00 0.00 0.00 84 1017.1
20260905190411 25 89 1.6 3.2 0.00 0.00 0.00 85 1017.1
20260905185910 24 72 1.6 3.2 0.00 0.00 0.00 86 1017.1
20260905185406 25 84 3.2 3.2 0.00 0.00 0.00 85 1017.4
20260905184904 24 136 1.6 1.6 0.00 0.00 0.00 85 1017.4
20260905184359 24 135 3.2 3.2 0.00 0.00 0.00 86 1017.4
20260905183857 24 48 1.6 1.6 0.00 0.00 0.00 85 1017.4
20260905183352 24 230 0.0 0.0 0.00 0.00 0.00 86 1017.1
20260905182847 24 209 4.8 4.8 0.00 0.00 0.00 86 1017.4
20260905182341 25 174 8.0 11.3 0.00 0.00 0.00 84 1017.4
20260905181837 25 184 1.6 3.2 0.00 0.00 0.00 85 1017.7
20260905181336 24 226 4.8 8.0 0.00 0.00 0.00 85 1017.7
20260905180836 25 90 3.2 3.2 0.00 0.00 0.00 84 1017.7
20260905180331 25 295 1.6 1.6 0.00 0.00 0.00 83 1017.7
20260905175826 25 288 1.6 1.6 0.00 0.00 0.00 85 1017.7
20260905175326 23 177 0.0 1.6 0.00 0.00 0.00 88 1017.7
20260905174821 23 35 1.6 1.6 0.00 0.00 0.00 86 1017.7
20260905174317 23 195 1.6 3.2 0.00 0.00 0.00 87 1018.1